GFSSE_850_thetae_159.txt.gz
Theta_e
341 345 342 337 336 337 337 338 339 340 338 332 322 320 322 322 325 329 332 329 323 325 330 333 335 337 336 334 332 327 323 323 323 323 323 324 325 325 327 330 326 325 325
341 343 341 335 335 336 335 335 338 339 338 334 325 320 320 323 330 333 332 325 323 328 331 333 332 333 334 333 329 324 324 323 324 325 325 340 325 325 326 326 325 325 325
335 342 341 336 336 336 333 333 336 338 339 336 329 321 320 324 331 332 329 323 324 328 330 332 331 330 327 324 324 324 324 325 336 343 341 340 331 327 325 325 325 325 325
331 340 339 337 336 336 334 332 335 337 339 337 332 321 320 322 327 328 325 326 326 328 329 328 329 331 327 324 323 324 327 340 343 343 347 344 343 343 342 327 325 325 325
333 339 338 337 336 336 334 333 334 336 337 337 333 322 320 322 326 327 331 335 334 329 329 332 332 325 323 323 323 324 328 341 339 344 345 343 343 340 343 331 332 334 335
334 340 339 335 337 336 335 333 333 334 336 334 331 323 320 322 326 330 331 334 336 335 335 330 323 322 323 323 323 324 327 341 344 344 348 345 342 342 345 341 338 340 340
341 341 341 337 337 337 336 334 332 332 334 332 329 324 321 321 325 329 330 329 329 330 327 324 324 323 322 323 323 324 330 344 346 347 346 347 345 343 343 344 339 340 341
346 340 342 341 338 338 337 335 333 330 330 329 327 324 322 321 324 326 327 326 325 323 324 324 323 322 322 322 323 323 325 339 346 346 345 346 345 343 343 341 335 332 331
354 339 344 342 340 338 337 337 334 329 328 326 326 324 322 320 323 325 325 325 325 324 323 323 321 321 321 321 321 322 323 324 338 345 341 344 344 341 339 336 328 330 334
359 348 344 343 341 339 337 337 336 331 327 326 325 324 322 320 322 324 325 324 324 322 323 322 321 321 321 321 321 321 321 324 338 331 337 343 340 337 337 333 330 332 335
359 356 351 341 342 340 337 337 336 332 328 325 325 324 322 320 322 324 324 324 323 323 323 321 321 321 322 335 333 328 333 333 335 335 337 340 339 338 341 340 337 335 334
357 356 355 348 341 340 337 337 336 333 329 325 323 322 321 319 321 324 324 324 323 324 322 321 321 329 328 338 338 337 335 336 334 334 340 340 342 342 341 339 337 335 332
357 356 357 353 338 341 337 337 336 333 329 326 323 321 320 320 323 324 324 324 323 323 322 322 324 335 338 342 340 341 342 342 344 342 343 343 342 342 339 336 333 331 327
356 355 355 356 342 340 340 337 337 334 330 326 322 320 320 321 324 325 327 325 324 322 329 335 341 339 336 342 344 343 344 344 343 343 343 342 342 340 337 334 327 325 326
355 354 354 355 348 339 341 340 337 336 332 328 324 320 320 327 333 330 340 328 324 339 339 339 342 341 344 343 344 344 342 342 342 342 341 342 339 337 335 332 327 326 324
345 355 354 354 354 344 340 343 341 337 334 330 327 321 322 332 338 338 342 340 340 340 341 340 343 343 345 345 343 343 342 341 341 341 341 338 333 335 334 333 329 328 326
340 355 355 354 353 351 344 345 346 340 337 334 332 325 324 340 343 343 346 342 340 340 342 343 344 346 345 346 344 341 340 339 339 341 340 330 333 335 335 333 331 329 327
336 352 355 354 353 351 346 348 346 342 342 340 338 338 325 342 345 341 342 342 341 343 344 345 347 345 343 344 344 342 340 340 341 341 330 330 335 331 334 332 329 329 326
323 349 354 353 352 349 349 349 346 345 344 344 344 344 333 341 343 340 340 340 341 344 344 343 342 343 343 345 342 341 342 339 330 328 331 332 326 328 329 327 329 329 326
320 336 354 353 350 351 352 348 348 346 347 346 347 345 342 341 343 341 340 340 344 345 343 342 344 346 344 343 343 342 341 339 334 335 334 332 332 331 331 330 330 330 326
320 324 347 355 349 344 348 347 346 348 348 347 348 347 345 343 340 341 339 341 346 345 345 345 344 340 335 336 331 336 337 339 336 336 334 334 334 333 333 329 328 327 327
320 323 339 352 350 346 336 349 347 349 348 348 347 346 344 344 339 340 341 342 345 345 343 342 337 333 335 328 322 327 333 335 337 330 334 336 335 334 333 328 327 325 321
321 320 327 345 348 353 350 339 343 347 349 349 348 346 345 344 338 340 343 342 344 341 341 338 336 333 327 330 327 328 331 332 330 330 334 334 332 329 321 320 319 318 320
322 321 322 339 346 354 351 352 350 348 349 348 348 346 345 345 338 341 342 342 342 341 340 337 328 327 329 330 330 332 330 332 332 332 330 328 326 323 319 317 317 316 315
323 322 324 333 343 352 353 352 351 348 347 348 348 345 345 343 335 340 344 345 342 342 337 330 329 329 328 327 326 330 330 330 328 327 324 323 318 316 317 316 316 315 315
320 323 337 333 342 348 354 353 352 349 348 349 347 345 344 342 337 344 347 344 344 340 332 328 330 329 329 326 324 326 328 326 325 323 321 316 315 312 311 313 316 315 315

GFSSE_850_thetae_162.txt.gz
Theta_e
346 346 344 341 343 339 338 338 337 335 328 320 319 321 322 324 327 331 331 322 325 329 332 333 334 333 333 332 328 323 323 322 323 323 323 324 325 326 327 328 325 325 325
345 346 343 341 341 338 336 335 336 336 329 320 320 322 322 326 329 331 326 322 326 329 331 330 334 333 333 331 325 323 323 323 324 330 331 325 326 325 325 325 325 325 325
341 342 342 339 338 335 333 333 335 336 330 322 320 321 324 329 331 331 323 323 326 328 329 329 329 327 326 324 323 323 324 330 331 337 333 339 341 337 340 326 325 325 325
341 338 339 338 337 333 331 332 335 336 333 325 320 320 326 330 330 328 323 324 326 327 328 327 329 328 324 323 324 325 337 343 344 345 342 341 342 342 343 331 331 332 332
341 336 335 337 335 332 330 330 334 336 335 328 320 320 324 327 327 324 325 325 327 326 326 329 328 324 323 323 324 329 340 341 343 345 343 343 343 343 344 342 339 337 338
337 335 335 336 335 332 330 330 332 334 333 329 321 319 322 325 325 327 330 331 328 330 331 325 322 322 323 323 324 327 338 341 345 347 345 342 342 344 342 343 341 337 337
335 335 337 338 336 333 331 330 330 332 331 328 321 320 321 323 325 326 327 330 332 331 325 323 323 322 323 323 324 325 338 343 347 347 344 343 344 344 343 343 340 335 329
334 335 337 339 337 334 332 330 329 330 328 326 322 320 320 322 324 324 325 324 324 324 323 323 322 322 322 322 323 325 340 345 346 344 342 343 345 345 343 339 335 329 331
339 337 338 338 338 336 334 332 330 330 328 327 323 321 320 321 323 323 324 324 323 323 323 322 321 320 321 321 322 323 326 334 339 343 339 341 345 342 337 336 336 336 335
350 338 338 339 338 337 336 335 332 330 330 328 325 323 321 320 322 323 324 324 323 322 322 322 321 320 321 321 321 321 323 325 332 334 335 339 341 337 338 341 340 338 336
349 338 340 339 339 337 337 336 335 331 330 327 326 324 322 320 322 323 323 323 322 322 322 321 321 321 331 329 328 329 326 333 334 332 335 338 339 341 341 340 338 334 333
356 346 338 338 336 337 337 337 336 334 331 328 325 323 321 320 322 323 323 323 322 323 321 321 321 324 336 337 335 335 335 336 336 338 338 339 342 341 340 338 332 331 328
358 357 348 338 338 336 337 337 336 334 332 328 325 322 321 320 322 323 323 322 322 322 321 322 334 330 340 339 341 341 342 342 344 343 342 342 342 342 339 334 326 325 326
358 357 356 353 343 336 337 337 337 334 331 327 325 323 321 320 322 322 323 322 322 322 322 328 333 335 341 342 342 341 343 344 341 343 342 340 341 338 335 333 330 325 324
357 357 356 355 352 346 336 337 337 336 331 327 324 322 320 320 321 322 323 323 323 323 333 338 340 340 340 343 342 341 342 342 343 340 339 341 336 334 334 333 331 327 326
345 357 356 356 354 352 339 335 337 337 333 329 325 321 320 320 322 325 330 324 333 336 338 340 342 342 343 343 343 342 342 341 339 339 340 335 330 332 333 334 332 329 327
321 333 355 356 354 350 344 338 337 338 336 331 326 322 320 321 328 332 337 337 340 340 340 340 343 344 346 346 343 341 340 339 338 339 339 333 328 331 331 333 329 328 328
319 325 342 354 351 350 343 339 339 338 338 334 329 324 320 323 335 337 340 340 340 341 342 344 343 346 346 343 344 341 339 339 340 340 338 331 330 328 329 328 328 330 329
318 321 336 352 349 345 342 342 339 341 339 337 333 328 322 328 340 342 340 341 341 343 343 346 346 345 341 344 343 342 341 341 340 332 331 332 332 331 330 331 328 330 330
318 320 331 345 350 345 343 344 345 345 341 338 336 335 327 329 342 344 341 342 341 346 346 345 342 342 344 342 343 341 341 341 339 334 335 334 334 333 332 331 329 328 327
320 319 329 340 350 346 345 345 345 343 343 344 342 343 334 332 340 343 340 341 341 344 343 342 342 343 343 340 335 335 334 338 338 335 331 334 334 332 332 332 328 326 324
318 318 329 338 343 349 346 347 344 344 345 345 345 345 344 336 339 343 341 340 340 344 344 342 342 343 340 333 324 325 334 336 336 331 335 335 335 333 331 322 318 318 319
316 317 324 341 342 349 348 347 339 336 346 346 346 347 346 343 342 342 341 339 340 346 344 343 343 342 333 327 326 325 327 330 329 331 336 333 328 324 320 318 317 316 315
315 316 317 329 339 346 348 345 340 339 345 348 348 347 347 344 343 341 341 339 340 344 345 344 340 335 330 329 328 328 327 327 330 330 329 328 325 320 317 316 315 315 315
315 315 317 321 337 342 348 346 341 336 336 348 349 348 347 344 344 341 340 339 343 342 343 341 337 332 329 328 328 328 328 328 328 328 327 324 317 313 312 313 315 315 313
315 315 315 319 329 337 340 345 341 336 336 347 348 349 347 344 344 340 339 340 343 343 341 338 329 328 330 328 327 327 327 326 324 323 320 315 312 309 312 314 314 313 312

GFSSE_850_thetae_165.txt.gz
Theta_e
343 345 344 344 342 338 340 336 334 331 322 321 329 334 335 331 336 334 324 324 328 333 335 336 337 338 334 329 323 323 322 322 323 324 324 325 326 325 326 325 325 325 325
345 344 343 343 342 338 337 335 332 330 320 319 321 325 327 328 332 331 322 325 328 331 331 333 332 332 331 325 323 322 323 323 334 324 326 325 327 331 326 325 325 325 325
348 343 342 342 342 338 335 333 332 329 320 319 320 322 324 328 331 327 322 325 328 329 329 331 331 330 327 324 323 323 323 327 338 327 336 337 342 341 334 331 330 331 331
348 341 340 341 340 336 334 331 331 328 321 319 321 321 327 329 330 324 322 326 328 329 328 328 327 324 323 323 323 324 335 334 342 341 340 341 341 340 342 341 340 336 337
344 339 338 337 338 334 332 331 332 329 323 319 320 323 328 330 329 323 323 325 327 327 326 328 326 324 323 324 325 338 342 342 341 340 341 342 340 342 341 343 341 338 335
343 337 336 336 337 334 330 331 333 332 326 319 320 324 327 328 326 323 324 326 326 326 328 326 323 323 323 324 329 339 340 341 343 345 341 343 343 343 343 343 340 335 329
344 334 334 335 335 333 330 330 334 334 330 320 320 323 325 325 324 327 329 328 327 329 324 322 322 322 323 323 325 337 338 343 345 345 343 343 343 344 343 341 334 331 332
343 334 334 336 335 333 331 330 333 333 331 323 320 321 323 324 325 327 329 329 329 325 323 323 322 322 323 323 324 328 338 342 345 344 341 343 344 344 341 335 337 338 337
340 334 335 334 335 335 332 331 332 332 331 326 321 320 322 323 325 325 324 324 324 323 322 321 321 321 322 323 323 325 336 344 342 339 337 341 343 341 336 339 339 338 336
340 337 334 336 335 335 334 332 332 332 331 328 322 320 321 323 324 324 323 323 322 322 321 321 320 320 320 321 322 323 324 326 328 339 335 338 340 338 341 339 338 334 331
342 340 338 336 336 335 336 335 333 333 331 329 325 322 321 323 324 324 323 323 322 321 322 321 320 321 322 321 321 321 323 329 334 333 333 337 339 341 340 338 334 328 329
343 342 340 337 336 335 335 337 336 335 334 331 327 323 321 322 323 323 323 323 321 322 321 320 321 332 332 332 333 333 334 333 334 338 338 340 340 341 340 335 329 324 325
349 346 343 340 336 335 335 336 337 336 335 333 328 324 322 321 323 323 323 322 321 322 321 321 322 336 336 336 338 339 340 341 341 342 342 342 341 339 336 333 330 324 324
353 350 346 343 339 336 334 335 335 335 333 332 328 324 322 321 322 322 322 322 322 322 321 325 329 333 339 340 340 342 340 343 340 342 341 339 339 334 335 333 331 327 326
322 347 347 345 342 338 335 334 335 334 332 329 326 324 322 321 321 322 322 322 322 321 322 325 333 336 340 342 341 341 341 341 340 340 340 340 332 332 333 333 332 331 328
320 331 352 348 344 340 338 335 334 334 332 329 326 323 321 321 320 322 322 322 323 322 326 336 340 338 340 341 342 341 341 340 338 338 340 339 329 331 331 332 328 327 328
319 319 326 349 349 343 340 338 336 336 334 331 327 324 321 320 320 322 323 324 322 327 336 340 341 342 343 344 343 344 340 338 338 340 340 338 331 328 328 327 326 328 329
316 319 319 322 345 349 341 339 337 336 336 334 329 325 322 320 320 322 329 324 334 338 339 341 342 342 344 346 345 344 340 340 340 335 332 330 331 330 329 330 330 329 330
316 317 318 319 336 352 347 341 338 337 337 335 331 327 324 320 321 326 335 334 339 340 340 341 342 343 345 345 343 343 341 341 340 338 333 333 333 332 331 331 331 329 329
318 318 319 323 329 346 352 345 340 337 337 335 333 330 326 322 321 331 338 339 340 340 342 344 344 346 346 344 344 343 341 341 340 336 334 333 333 333 331 331 331 329 327
316 318 321 325 333 346 350 346 341 337 338 336 334 331 327 323 322 336 338 341 342 341 343 345 345 346 344 343 342 342 339 339 338 334 335 332 333 333 332 333 326 324 322
316 316 317 325 333 338 346 348 343 340 340 339 334 334 330 327 323 335 339 341 342 341 345 347 346 344 343 343 333 333 335 334 334 332 332 334 332 333 329 322 318 318 317
316 315 315 319 328 341 341 347 344 342 343 341 340 339 337 339 326 336 342 340 341 341 342 345 343 341 342 340 329 325 329 331 331 333 333 329 326 325 322 319 317 316 315
316 315 315 318 321 333 346 346 344 344 344 344 343 344 342 343 329 336 342 340 341 340 340 345 343 343 343 335 327 326 327 327 329 329 328 325 325 320 314 313 313 314 314
316 315 314 317 322 330 330 346 346 345 345 343 338 340 345 344 342 338 341 342 341 340 343 346 344 343 338 331 328 328 327 326 327 327 328 324 317 313 311 312 313 313 313
317 317 315 315 321 326 333 339 346 346 344 339 340 336 344 346 346 340 342 342 341 339 343 345 344 342 336 329 329 327 325 326 326 325 322 318 313 311 312 312 313 312 304

GFSSE_850_thetae_168.txt.gz
Theta_e
347 344 346 345 344 341 340 340 335 329 324 333 337 336 331 331 331 323 323 326 328 337 341 341 340 339 336 328 323 325 322 323 324 324 326 325 325 326 325 324 325 325 325
341 342 341 343 344 340 339 338 333 329 322 324 332 330 330 329 332 324 324 327 332 335 335 333 333 330 327 323 322 322 323 324 324 325 325 333 336 328 326 327 327 327 328
342 338 339 342 342 338 338 335 332 328 320 320 324 327 327 329 331 323 324 328 330 331 332 331 331 330 325 323 322 323 330 327 330 335 338 340 339 337 336 338 336 336 337
344 336 338 339 341 338 337 333 330 327 319 319 321 323 324 329 329 322 324 327 329 328 330 330 328 326 323 323 323 323 334 336 334 338 341 341 340 341 341 341 339 338 336
344 337 337 335 339 337 335 332 330 326 319 319 320 322 326 329 328 322 324 326 328 327 328 327 325 323 323 323 324 333 335 342 343 340 341 341 341 342 342 341 339 335 330
347 339 337 336 339 337 334 331 331 326 320 319 321 323 327 329 327 322 324 326 327 327 327 328 324 323 323 324 333 342 341 341 343 343 342 343 342 342 343 341 334 331 333
348 339 336 336 339 335 333 330 332 327 321 319 320 325 328 329 326 322 325 326 326 326 328 323 323 323 323 325 338 340 339 343 343 343 343 342 343 344 342 336 336 338 337
346 342 338 337 338 334 331 330 332 331 325 319 320 325 328 328 324 323 325 327 326 328 323 322 322 322 323 324 327 338 338 343 345 344 340 342 344 343 337 338 339 338 337
346 343 340 339 338 334 332 331 333 334 330 320 320 324 327 326 324 328 329 327 329 324 323 322 322 322 323 323 324 328 338 341 344 338 338 339 342 338 338 340 338 334 331
345 344 343 341 340 334 331 333 333 334 332 324 320 323 325 324 326 328 329 328 326 323 322 321 321 321 322 323 323 324 332 340 334 335 335 337 339 338 341 340 337 329 328
346 344 343 342 341 338 332 331 335 334 332 329 322 321 324 325 326 325 325 323 322 322 321 320 320 320 320 321 322 322 323 325 331 334 332 337 339 341 341 339 331 324 325
347 345 342 340 340 339 336 334 333 334 333 330 325 321 322 324 325 325 324 323 323 322 321 320 320 321 321 322 324 325 331 333 335 340 340 341 340 339 338 333 330 325 324
347 345 343 341 340 337 336 335 334 335 334 331 328 323 321 323 324 324 324 324 322 322 321 320 322 330 331 333 335 334 338 340 340 339 341 338 337 337 333 332 330 326 327
340 340 343 342 340 340 337 335 335 334 333 332 330 325 322 321 323 323 324 323 322 322 320 321 329 335 335 338 339 341 340 341 339 341 339 339 335 330 332 332 331 330 327
319 319 338 345 343 340 339 339 335 334 332 329 327 326 323 321 320 322 323 323 322 322 321 324 327 335 339 340 340 341 341 340 339 338 338 339 329 330 331 332 327 326 327
316 319 326 335 349 343 340 338 338 337 335 332 328 324 322 321 320 321 322 322 322 322 321 330 332 338 340 341 341 341 340 339 339 338 339 339 330 329 328 327 326 327 327
316 318 319 321 341 348 343 339 339 338 338 335 331 327 323 321 320 320 322 322 322 322 323 330 337 335 340 341 342 342 340 338 337 339 335 332 331 330 329 329 330 330 329
316 316 317 319 323 341 348 344 340 340 338 336 334 330 325 323 321 320 321 322 323 322 328 338 340 341 340 343 343 344 339 338 339 335 331 330 332 331 330 330 330 330 329
316 316 316 319 319 319 330 349 344 340 338 336 336 332 328 324 321 320 321 322 325 323 334 339 341 341 342 346 345 344 342 341 340 339 333 333 333 333 332 332 331 330 330
316 316 316 316 317 319 324 343 348 343 339 337 336 335 330 326 322 320 321 328 326 330 337 339 341 342 343 345 344 344 342 342 340 338 333 333 333 333 332 331 331 331 329
315 316 318 318 318 321 326 331 346 348 343 339 337 336 333 328 323 320 323 333 334 339 339 340 340 343 344 346 344 342 341 340 339 336 333 333 333 332 332 332 330 325 322
314 315 316 317 320 322 329 328 335 349 348 341 337 337 335 330 326 320 327 336 338 339 340 341 342 344 346 344 342 340 336 333 334 333 332 332 332 332 330 327 324 321 319
314 314 315 315 315 321 330 339 342 346 346 341 337 337 336 334 329 322 328 336 340 341 341 343 344 345 344 343 341 332 332 333 330 326 326 327 327 327 325 323 318 313 312
313 315 315 315 316 318 331 340 344 344 346 343 338 337 336 336 331 325 324 338 340 342 341 342 347 346 345 343 341 331 325 327 330 325 323 323 324 323 320 314 311 310 311
315 315 315 315 315 320 328 341 343 344 345 342 338 337 339 337 335 332 324 337 341 341 341 340 343 346 344 343 342 328 327 327 328 328 327 323 322 320 315 311 308 309 310
317 317 314 314 316 318 317 332 343 344 344 341 340 339 342 340 337 337 332 333 342 341 340 340 343 343 344 342 335 328 329 327 326 327 326 323 321 315 311 309 310 310 308

GFSSE_850_thetae_171.txt.gz
Theta_e
351 351 351 348 346 343 340 339 337 331 332 338 338 336 329 327 322 323 326 329 333 338 338 337 336 336 333 326 335 326 323 323 324 328 325 326 325 325 325 325 325 325 325
347 350 350 345 344 342 339 339 336 330 328 335 337 335 328 330 323 323 325 328 335 339 338 338 337 332 326 323 323 322 323 324 325 325 330 330 326 327 329 330 330 332 333
347 349 348 342 343 342 339 340 335 329 325 328 334 332 327 329 324 323 326 329 333 336 334 333 329 327 323 322 322 323 324 326 327 335 339 338 336 337 339 337 337 337 337
345 346 345 342 343 341 339 338 333 329 323 324 328 326 326 330 326 322 326 330 331 331 331 330 329 325 323 322 323 332 325 334 337 340 340 340 340 341 341 340 338 336 333
345 344 343 342 342 340 337 336 332 328 321 320 323 325 325 329 327 322 326 329 329 331 330 329 326 324 323 323 323 335 335 336 339 341 342 341 342 341 342 340 335 331 331
345 345 343 342 341 339 336 334 331 328 320 319 321 323 325 330 326 322 326 328 328 327 327 326 323 323 323 323 328 331 339 341 342 343 342 342 343 343 342 337 334 338 338
345 345 344 343 341 339 336 334 331 329 320 319 320 322 326 329 326 322 325 327 328 327 328 326 323 323 324 324 336 340 340 342 343 342 343 343 343 343 341 336 339 339 337
345 345 344 343 342 339 336 333 331 329 321 319 320 322 327 329 326 322 325 327 328 327 328 323 323 323 323 327 338 339 339 343 344 344 340 342 344 342 337 340 339 337 332
347 345 343 343 343 340 337 334 333 331 324 319 320 324 328 329 326 323 325 327 327 329 325 322 322 322 323 324 329 338 337 342 344 338 338 341 341 338 340 340 339 333 326
348 346 343 343 343 340 338 335 333 333 329 320 320 324 328 329 325 323 325 327 328 330 323 322 322 322 323 323 324 327 335 338 342 336 336 336 338 339 341 340 335 325 324
350 346 344 343 342 341 338 336 334 334 333 326 320 323 327 328 324 327 329 328 332 325 323 322 321 321 322 323 323 323 327 332 327 334 333 337 339 338 339 334 329 325 324
351 346 345 342 340 340 338 336 335 335 334 331 322 321 325 326 325 329 330 331 328 324 322 321 320 320 321 321 321 321 324 332 335 339 339 340 338 337 335 331 328 325 325
349 349 345 343 340 339 339 337 336 335 335 333 328 321 321 323 325 327 326 325 323 323 322 321 320 320 321 323 325 330 334 341 340 340 341 338 338 330 330 330 330 329 327
323 347 348 345 341 340 340 337 336 336 335 334 331 325 321 323 324 325 324 324 323 322 322 321 320 327 330 334 335 339 340 341 339 341 338 338 335 328 330 330 329 326 326
315 323 326 339 345 340 340 339 337 336 334 334 333 329 323 321 322 324 324 324 323 322 322 320 323 332 335 338 339 340 341 340 340 338 337 339 335 330 329 328 326 326 327
315 316 318 320 335 344 341 339 337 336 336 335 334 331 328 323 321 321 323 324 323 322 322 321 323 335 338 340 340 340 341 340 339 338 339 339 333 330 329 327 328 329 329
315 316 316 316 324 338 345 343 340 337 337 336 334 333 329 326 323 321 322 323 323 322 322 322 328 334 339 341 341 341 340 340 337 338 337 334 332 330 330 329 329 330 330
314 316 316 317 317 324 333 348 344 340 337 337 336 335 331 328 325 323 322 323 323 323 322 321 332 335 339 341 342 343 343 340 339 339 334 331 332 331 331 330 330 331 331
313 315 315 316 316 320 321 337 349 345 341 338 337 336 334 331 327 324 322 321 324 324 323 325 333 338 338 340 343 344 343 340 340 340 336 332 333 333 332 332 332 331 331
313 314 315 315 315 320 328 333 342 347 344 341 339 337 335 334 330 326 323 321 324 324 324 327 337 340 341 342 346 344 344 342 341 340 338 334 333 333 333 332 331 331 332
313 314 315 315 315 315 334 333 336 340 341 346 342 338 336 335 333 328 324 321 323 324 325 329 338 340 341 342 345 344 343 342 341 338 336 333 333 334 332 332 331 328 324
313 313 315 315 315 317 317 323 325 330 343 343 347 341 338 336 335 332 326 322 321 330 330 329 337 339 340 342 344 342 338 335 335 335 334 333 332 332 330 328 326 323 320
313 314 314 314 315 315 319 324 332 346 346 347 346 345 339 337 336 334 328 323 321 333 333 337 339 339 341 343 346 342 338 338 329 329 329 329 329 328 325 325 323 318 312
313 313 314 314 314 315 315 325 336 336 343 341 345 348 342 338 337 336 331 324 323 334 337 339 340 341 342 344 344 343 334 329 332 326 324 325 326 326 324 322 319 312 309
314 314 314 314 314 315 315 318 327 340 341 340 343 345 344 338 337 336 334 327 323 335 339 340 341 343 344 345 344 342 334 326 327 330 328 324 324 324 322 320 314 309 309
317 317 316 314 315 315 315 318 323 328 338 343 343 344 345 340 337 336 336 333 323 333 339 342 341 341 342 343 343 342 337 326 328 328 328 326 323 322 321 315 310 309 309

GFSSE_850_thetae_174.txt.gz
Theta_e
355 357 350 351 346 343 340 338 337 336 336 338 337 330 327 326 323 324 325 328 328 328 326 325 327 337 332 336 334 326 323 322 325 326 325 325 324 325 325 325 328 336 326
356 357 352 349 346 343 339 338 337 335 336 338 337 332 328 323 323 325 327 329 333 337 334 333 334 334 328 330 328 323 323 324 326 325 325 325 325 327 330 331 334 335 333
356 358 350 348 345 342 339 338 336 333 334 337 338 333 329 324 323 325 327 331 339 337 337 336 335 329 323 323 322 323 324 325 328 335 336 344 342 339 337 337 337 337 336
358 358 349 347 344 341 338 337 335 332 330 334 337 334 330 327 322 325 327 330 336 336 335 332 328 325 323 322 323 324 326 328 337 339 342 342 342 341 341 339 336 332 331
359 356 353 346 343 341 338 336 334 331 328 327 335 332 329 330 323 325 327 331 332 332 330 330 329 324 323 323 327 325 333 336 340 343 345 345 346 343 342 338 336 337 338
359 357 351 346 343 341 338 335 333 330 326 325 330 328 327 331 324 324 327 330 329 331 331 330 326 323 323 323 330 332 333 338 340 348 347 347 347 344 342 336 338 339 338
358 357 348 345 343 341 338 336 333 329 324 322 326 328 327 330 327 323 327 329 328 328 327 327 323 323 323 324 326 331 340 340 345 344 348 348 348 343 340 337 340 339 337
356 356 351 344 343 340 338 337 334 330 324 320 323 326 326 330 328 322 327 329 329 328 328 328 324 323 324 324 334 339 338 341 343 343 346 347 344 342 337 341 340 338 329
356 355 356 345 343 340 338 337 334 331 325 319 321 323 326 329 328 322 325 327 329 329 328 325 323 323 323 328 338 339 338 342 342 342 344 345 340 339 340 340 339 331 324
357 356 355 352 345 341 338 337 334 332 328 320 321 322 326 329 328 323 324 327 328 327 330 322 322 322 323 324 332 335 337 340 341 342 343 346 338 339 340 339 330 326 324
357 356 355 354 351 348 346 338 335 333 330 324 321 321 327 330 329 324 324 327 328 328 327 322 322 322 323 323 323 325 329 336 336 338 343 339 339 339 339 335 328 325 323
358 357 356 355 353 350 347 345 336 334 331 327 322 321 328 339 339 340 337 326 328 332 324 324 322 321 322 330 324 323 326 331 333 338 344 340 339 338 335 329 327 327 327
344 357 355 356 354 351 348 348 344 344 342 337 333 326 334 341 342 341 344 332 331 332 325 323 321 321 328 331 330 329 333 337 341 342 344 340 338 333 328 329 329 328 326
329 343 354 356 355 353 350 348 346 344 344 344 343 338 340 342 344 344 343 343 341 337 335 335 332 331 333 333 334 336 341 344 344 343 346 337 338 330 330 330 328 326 326
320 325 344 355 355 354 352 349 348 346 345 345 345 343 340 341 343 343 343 341 340 338 337 336 334 334 334 337 340 342 344 345 344 345 344 339 338 331 330 329 327 327 328
319 320 326 345 348 351 351 351 350 348 345 345 345 344 340 340 342 342 343 342 340 338 336 335 333 334 337 339 342 345 346 346 346 344 343 343 339 332 330 330 328 329 329
318 319 316 321 344 348 347 352 351 349 347 346 344 344 339 336 342 336 333 341 339 339 337 337 333 334 339 341 344 347 347 347 346 345 344 343 341 333 331 330 329 329 330
318 319 319 318 324 344 348 350 352 351 349 347 345 345 338 337 339 330 337 339 339 339 338 336 333 333 340 342 344 346 347 348 346 345 344 342 340 340 338 332 330 330 331
318 319 315 315 316 335 347 348 350 350 351 349 347 345 344 335 335 332 338 339 340 338 338 335 334 336 340 342 344 347 347 348 348 346 344 341 341 339 340 337 333 331 331
318 318 314 314 315 329 343 345 348 348 352 352 349 346 345 339 334 331 337 337 333 333 337 336 335 337 341 342 344 347 346 345 344 343 342 340 340 337 335 335 335 335 332
317 318 314 314 315 319 334 343 353 347 353 352 352 349 347 343 337 335 333 329 327 336 336 334 335 341 343 345 347 344 343 344 343 341 341 338 334 333 333 332 331 329 326
318 318 320 321 314 314 329 339 342 345 352 351 349 350 348 346 340 337 334 334 328 334 325 333 333 338 343 345 345 345 343 338 338 340 339 336 333 331 329 330 329 327 323
319 319 320 321 321 315 318 337 343 347 347 346 345 346 347 346 344 341 338 336 330 330 332 328 331 337 341 346 345 345 345 343 339 332 334 331 330 330 328 326 326 324 321
318 318 318 320 317 317 320 331 339 341 340 340 341 344 347 346 344 344 341 336 332 326 329 331 338 335 340 344 344 344 344 340 338 334 328 327 327 327 326 322 321 321 317
321 322 322 321 314 315 333 330 338 340 339 341 343 344 340 346 346 344 343 339 334 329 332 336 342 334 343 343 345 344 343 341 337 335 336 329 325 322 321 320 319 315 311
320 321 323 324 324 320 330 338 340 340 341 342 344 343 342 344 343 343 342 342 336 331 326 325 341 337 343 346 346 343 342 340 337 336 334 333 329 324 319 317 315 311 308